Flag for USA

Past Weather in Troy, Michigan, USA — Yesterday and Last 2 Weeks

Now
54 °F

Clear.


Feels Like: 54 °F
Forecast: 66 / 44 °F
Wind: No wind

Location: Troy, Oakland/Troy Airport
Current Time: Sep 19, 2020 at 9:37:30 pm
Latest Report: Sep 19, 2020 at 8:55 pm
Visibility: 10 mi
Pressure30.38 "Hg(27.78 "Hg at 748m altitude)
Humidity: 26%
Dew Point: 19 °F
Location of TroyLocation

Past Weather in Troy — Graph

°F

Troy Temperature Yesterday

Maximum temperature yesterday: 62 °F (at 1:35 pm)
Minimum temperature yesterday: 47 °F (at 11:15 pm)
Average temperature yesterday: 54 °F

High & Low Weather Summary for the Past Weeks

 TemperatureHumidityPressure
High82 °F (Sep 7, 4:15 pm)99% (Sep 9, 6:55 am)30.46 "Hg (Sep 9, 6:55 am)
Low41 °F (Sep 19, 7:15 am)17% (Sep 19, 6:55 pm)29.72 "Hg (Sep 7, 2:55 am)
Average63 °F71%30.18 "Hg
* Reported Sep 4 8:15 pm — Sep 19 8:35 pm, Troy. Weather by CustomWeather, © 2020

Note: Actual official high and low records may vary slightly from our data, if they occured in-between our weather recording intervals... More about our weather records

Troy Weather History for the Previous 24 Hours

Scroll right to see more
 ConditionsComfort  
Time TempWeatherWind HumidityBarometerVisibility
8:35 pm
Sat, Sep 19
54 °FClear.3 mph24%30.38 "Hg10 mi
8:15 pm57 °FClear.3 mph22%30.37 "Hg10 mi
7:55 pm56 °FClear.3 mph22%30.37 "Hg10 mi
7:35 pm58 °FClear.3 mph21%30.37 "Hg10 mi
7:15 pm60 °FSunny.5 mph18%30.37 "Hg10 mi
6:55 pm60 °FSunny.7 mph17%30.37 "Hg10 mi
6:35 pm62 °FSunny.No wind19%30.37 "Hg10 mi
6:15 pm63 °FSunny.No wind19%30.37 "Hg10 mi
5:55 pm63 °FSunny.5 mph20%30.37 "Hg10 mi
5:35 pm63 °FSunny.No wind20%30.37 "Hg10 mi
5:15 pm62 °FSunny.No wind20%30.38 "Hg10 mi
4:55 pm61 °FSunny.No wind21%30.38 "Hg10 mi
4:35 pm63 °FSunny.3 mph19%30.38 "Hg10 mi
4:15 pm62 °FSunny.5 mph21%30.39 "Hg10 mi
3:55 pm62 °FSunny.No wind22%30.39 "Hg10 mi
3:35 pm62 °FSunny.No wind24%30.40 "Hg10 mi
3:15 pm62 °FSunny.5 mph24%30.40 "Hg10 mi
2:55 pm61 °FSunny.No wind23%30.41 "Hg10 mi
2:35 pm61 °FSunny.5 mph22%30.42 "Hg10 mi
2:15 pm61 °FSunny.3 mph24%30.42 "Hg10 mi
1:55 pm60 °FSunny.5 mph28%30.43 "Hg10 mi
1:35 pm60 °FSunny.No wind25%30.44 "Hg10 mi
1:15 pm60 °FSunny.3 mph27%30.44 "Hg10 mi
12:55 pm59 °FSunny.3 mph30%30.44 "Hg10 mi
12:35 pm57 °FSunny.No wind37%30.45 "Hg10 mi
12:15 pm57 °FSunny.No wind37%30.45 "Hg10 mi
11:55 am56 °FSunny.5 mph40%30.45 "Hg10 mi
11:35 am55 °FSunny.3 mph40%30.46 "Hg10 mi
11:15 am55 °FSunny.5 mph41%30.46 "Hg10 mi
10:55 am54 °FSunny.6 mph43%30.46 "Hg10 mi
10:35 am53 °FSunny.No wind44%30.46 "Hg10 mi
10:15 am51 °FSunny.3 mph48%30.46 "Hg10 mi
9:15 am48 °FSunny.No wind52%30.44 "Hg10 mi
8:55 am47 °FSunny.No wind54%30.44 "Hg10 mi
8:35 am44 °FSunny.No wind61%30.44 "Hg10 mi
8:15 am43 °FSunny.No wind64%30.43 "Hg10 mi
7:55 am42 °FSunny.No wind69%30.44 "Hg10 mi
7:35 am41 °FSunny.No wind70%30.43 "Hg10 mi
7:15 am41 °FClear.No wind73%30.43 "Hg10 mi
6:55 am41 °FClear.No wind72%30.43 "Hg10 mi
6:35 am41 °FClear.No wind71%30.42 "Hg10 mi
6:15 am41 °FClear.No wind71%30.41 "Hg10 mi
5:55 am42 °FClear.No wind69%30.41 "Hg10 mi
5:35 am42 °FClear.No wind68%30.41 "Hg10 mi
5:15 am42 °FClear.No wind68%30.41 "Hg10 mi
4:55 am43 °FClear.No wind68%30.41 "Hg10 mi
4:35 am43 °FClear.No wind68%30.42 "Hg10 mi
4:15 am43 °FClear.No wind68%30.42 "Hg10 mi
3:55 am43 °FClear.No wind69%30.42 "Hg10 mi
3:35 am43 °FClear.No wind68%30.42 "Hg10 mi
3:15 am44 °FClear.No wind66%30.42 "Hg10 mi
2:55 am44 °FClear.3 mph65%30.42 "Hg10 mi
2:35 am45 °FClear.No wind63%30.42 "Hg10 mi
2:15 am44 °FClear.No wind64%30.41 "Hg10 mi
1:55 am45 °FClear.No wind61%30.41 "Hg10 mi
1:35 am45 °FClear.No wind61%30.41 "Hg10 mi
1:15 am45 °FClear.3 mph60%30.41 "Hg10 mi
12:55 am46 °FClear.3 mph60%30.41 "Hg10 mi
12:35 am46 °FClear.No wind61%30.41 "Hg10 mi
12:15 am46 °FClear.5 mph60%30.41 "Hg10 mi
11:55 pm
Fri, Sep 18
47 °FClear.3 mph58%30.40 "Hg10 mi
11:35 pm47 °FClear.5 mph57%30.40 "Hg10 mi
11:15 pm47 °FClear.3 mph57%30.40 "Hg10 mi
10:55 pm47 °FClear.3 mph57%30.39 "Hg10 mi
10:35 pm49 °FClear.3 mph53%30.39 "Hg10 mi
10:15 pm49 °FClear.6 mph52%30.38 "Hg10 mi
9:35 pm51 °FClear.6 mph48%30.39 "Hg10 mi
9:15 pm51 °FClear.8 mph47%30.39 "Hg10 mi
Weather by CustomWeather, © 2020

See weather overview